Sea Voyager — V7QU2 — position and weather

sailwx.info

Track history (hours):
 
Tides and Currents Weather Stations Pressure Air Temp Water Temp Dewpoint Dewpoint Depression Visibility Wind Speed Wind Dir Waves Ship Positions

Sea Voyager

Last reported at 2016-Jul-01 08:11 UTC. Time now 2016-Jul-23 21:13 UTC.
Position N 28°09' W 119°46'.
Warning: this ship's position is 22 days out of date.

Length 243 m; draft 8.7 m.

Type: Ship. MMSI: 538003439.

Date/timePositionNaut miles runAvg speedWind from/ knotsBaromVisibWave heightAir tempDewpointWater temp
2016-Jul-01 08:11N 28°09' W 119°46'912.6
2016-Jul-01 07:30N 28°16' W 119°53'1212.5
2016-Jul-01 06:33N 28°25' W 120°01'2512.5
2016-Jul-01 04:33N 28°44' W 120°20'1312.5
2016-Jul-01 03:33N 28°53' W 120°29'1412.6
2016-Jul-01 02:29N 29°03' W 120°40'1112.3
2016-Jul-01 01:33N 29°12' W 120°48'1212.3
2016-Jul-01 00:33N 29°21' W 120°57'1212.4
2016-Jun-30 23:33N 29°31' W 121°07'1212.2
2016-Jun-30 22:33N 29°40' W 121°16'1512.5
2016-Jun-30 21:22N 29°51' W 121°27'1012.7
2016-Jun-30 20:33N 29°59' W 121°35'1212.4
2016-Jun-30 19:33N 30°08' W 121°44'1312.5
2016-Jun-30 18:31N 30°18' W 121°54'1212.6
2016-Jun-30 17:33N 30°27' W 122°03'1312.6
2016-Jun-30 16:33N 30°36' W 122°13'1312.8
2016-Jun-30 15:33N 30°46' W 122°23'1412.7
2016-Jun-30 14:29N 30°56' W 122°33'1212.5
2016-Jun-30 13:32N 31°05' W 122°42'3712.5
2016-Jun-30 10:33N 31°33' W 123°11'1412.5
2016-Jun-30 09:28N 31°44' W 123°21'5012.7
2016-Jun-30 05:29N 32°22' W 123°60'1212.4
2016-Jun-30 04:33N 32°32' W 124°07'8912.5
2016-Jun-29 21:27N 33°49' W 124°59'1112.1
2016-Jun-29 20:32N 33°59' W 125°05'1212.1
2016-Jun-29 19:31N 34°10' W 125°12'1212.0
2016-Jun-29 18:33N 34°20' W 125°19'2412.2
2016-Jun-29 16:33N 34°41' W 125°34'1312.2
2016-Jun-29 15:31N 34°53' W 125°41'3812.4
2016-Jun-29 12:27N 35°23' W 125°12'1112.5
2016-Jun-29 11:33N 35°32' W 125°04'1312.6
2016-Jun-29 10:33N 35°42' W 124°54'1312.9
2016-Jun-29 09:33N 35°52' W 124°45'1312.7
2016-Jun-29 08:33N 36°02' W 124°35'1312.5
2016-Jun-29 07:33N 36°11' W 124°25'1312.5
2016-Jun-29 06:32N 36°22' W 124°16'1212.5
2016-Jun-29 05:33N 36°31' W 124°06'1212.4
2016-Jun-29 04:33N 36°41' W 123°57'1212.4
2016-Jun-29 03:33N 36°51' W 123°47'1212.3
2016-Jun-29 02:33N 37°00' W 123°38'1212.4
2016-Jun-29 01:33N 37°10' W 123°28'1212.5
2016-Jun-29 00:33N 37°20' W 123°18'1212.5
2016-Jun-28 23:33N 37°30' W 123°09'1212.2
2016-Jun-28 22:33N 37°38' W 122°57'1212.3
2016-Jun-28 21:33N 37°44' W 122°44'1010.0
2016-Jun-28 20:33N 37°48' W 122°32'11 9.8
2016-Jun-28 19:24N 37°58' W 122°26'1112.7
2016-Jun-28 18:33N 38°04' W 122°15'6 0.2
2016-Jun-27 12:07N 38°02' W 122°07'1 1.0
2016-Jun-27 11:33N 38°02' W 122°08'5 5.0
2016-Jun-27 10:33N 38°04' W 122°14'11 9.7
2016-Jun-27 09:26N 37°58' W 122°26'9 9.8
2016-Jun-27 08:34N 37°50' W 122°24'8 8.5
2016-Jun-27 07:34N 37°47' W 122°34'9 9.0
2016-Jun-27 06:33N 37°42' W 122°44'7 7.3
2016-Jun-27 05:33N 37°37' W 122°51'8 7.6
2016-Jun-27 04:33N 37°34' W 122°59'7 7.3
2016-Jun-27 03:33N 37°27' W 123°03'6 6.1
2016-Jun-27 02:33N 37°21' W 123°02'1 1.0
2016-Jun-27 01:32N 37°20' W 123°02'1 1.2
2016-Jun-27 00:32N 37°20' W 123°03'1 1.1
2016-Jun-26 23:34N 37°21' W 123°04'1 1.3
2016-Jun-26 22:33N 37°21' W 123°06'1 1.4
2016-Jun-26 21:34N 37°22' W 123°07'2 1.5
2016-Jun-26 20:33N 37°23' W 123°09'9 8.6
2016-Jun-26 19:33N 37°15' W 123°13'1212.3
2016-Jun-26 18:33N 37°03' W 123°10'1312.5
2016-Jun-26 17:33N 36°52' W 123°03'1212.3
2016-Jun-26 16:33N 36°41' W 122°56'1312.5
2016-Jun-26 15:33N 36°30' W 122°48'1212.3
2016-Jun-26 14:34N 36°19' W 122°42'1212.0
2016-Jun-26 13:33N 36°08' W 122°35'1312.5
2016-Jun-26 12:34N 35°57' W 122°28'1212.5
2016-Jun-26 11:33N 35°46' W 122°21'1312.6
2016-Jun-26 10:33N 35°34' W 122°14'1312.6
2016-Jun-26 09:33N 35°23' W 122°07'1313.0
2016-Jun-26 08:33N 35°12' W 121°60'1212.5
2016-Jun-26 07:34N 35°00' W 121°53'1212.3
2016-Jun-26 06:34N 34°49' W 121°46'1212.4
2016-Jun-26 05:33N 34°38' W 121°39'5011.8
2016-Jun-26 01:18N 33°54' W 121°10'911.6
2016-Jun-26 00:33N 33°47' W 121°04'1211.7
2016-Jun-25 23:33N 33°38' W 120°56'3712.3
2016-Jun-25 20:33N 33°07' W 120°31'1212.4
2016-Jun-25 19:33N 32°57' W 120°23'1312.5
2016-Jun-25 18:33N 32°46' W 120°15'1212.5
2016-Jun-25 17:33N 32°36' W 120°07'1212.4
2016-Jun-25 16:33N 32°26' W 119°58'1312.5
2016-Jun-25 15:33N 32°15' W 119°50'1312.5
2016-Jun-25 14:33N 32°05' W 119°41'1212.4
2016-Jun-25 13:33N 31°55' W 119°33'1212.3
2016-Jun-25 12:33N 31°45' W 119°24'2 1.6
2016-Jun-25 11:33N 31°45' W 119°23'4 1.9
2016-Jun-25 09:20N 31°50' W 119°22'2 2.7
2016-Jun-25 08:33N 31°51' W 119°23'2 1.8
2016-Jun-25 07:33N 31°53' W 119°25'4 1.9
2016-Jun-25 05:30N 31°56' W 119°28'2 2.2
2016-Jun-25 04:26N 31°57' W 119°30'2 2.4
2016-Jun-25 03:33N 31°59' W 119°32'3 2.8
2016-Jun-25 02:31N 32°01' W 119°34'5 4.6
2016-Jun-25 01:33N 32°04' W 119°38'6 6.1
2016-Jun-25 00:33N 32°08' W 119°43'3 3.3
2016-Jun-24 23:33N 32°10' W 119°46'2 1.9
2016-Jun-24 22:34N 32°12' W 119°46'3 2.6
2016-Jun-24 21:33N 32°14' W 119°47'2 2.4
2016-Jun-24 20:33N 32°15' W 119°44'9 8.7
2016-Jun-24 19:33N 32°15' W 119°34'1212.3
2016-Jun-24 18:33N 32°15' W 119°20'1312.6
2016-Jun-24 17:33N 32°15' W 119°05'1212.5
2016-Jun-24 16:33N 32°15' W 118°50'1212.5
2016-Jun-24 15:34N 32°15' W 118°35'1111.0
2016-Jun-24 14:33N 32°19' W 118°23'1312.8
2016-Jun-24 13:33N 32°31' W 118°18'1312.9
2016-Jun-24 12:34N 32°43' W 118°13'1312.8
2016-Jun-24 11:33N 32°55' W 118°07'1312.1
2016-Jun-24 10:27N 33°08' W 118°02'1011.7
2016-Jun-24 09:33N 33°18' W 118°06'1212.1
2016-Jun-24 08:33N 33°29' W 118°11'1211.6
2016-Jun-24 07:34N 33°41' W 118°12'3 3.4
2016-Jun-24 06:33N 33°44' W 118°10'0 0.0
2016-Jun-24 04:33N 33°44' W 118°10'0 0.0
2016-Jun-24 03:33N 33°44' W 118°10'0 0.0
2016-Jun-24 02:33N 33°44' W 118°10'0 0.0
2016-Jun-24 01:33N 33°44' W 118°10'0 0.0
2016-Jun-24 00:33N 33°44' W 118°10'0 0.0
2016-Jun-23 23:33N 33°44' W 118°10'0 0.0
2016-Jun-23 22:30N 33°44' W 118°10'0 0.1
2016-Jun-23 21:33N 33°44' W 118°10'0 0.1
2016-Jun-23 20:27N 33°44' W 118°11'1 0.7
2016-Jun-23 19:33N 33°44' W 118°11'3 3.0
2016-Jun-23 18:32N 33°46' W 118°13'0 0.0
2016-Jun-23 17:32N 33°46' W 118°13'0 0.0
2016-Jun-23 16:32N 33°46' W 118°13'0 0.0
2016-Jun-23 15:32N 33°46' W 118°13'0 0.0
2016-Jun-23 14:32N 33°46' W 118°13'0 0.0
2016-Jun-23 13:32N 33°46' W 118°13'0 0.0
2016-Jun-23 12:32N 33°46' W 118°13'0 0.0
2016-Jun-23 11:32N 33°46' W 118°13'0 0.0
2016-Jun-23 10:32N 33°46' W 118°13'0 0.0
2016-Jun-23 09:32N 33°46' W 118°13'0 0.0
2016-Jun-23 08:32N 33°46' W 118°13'0 0.0
2016-Jun-23 07:32N 33°46' W 118°13'0 0.0
2016-Jun-23 05:32N 33°46' W 118°13'0 0.0
2016-Jun-23 04:32N 33°46' W 118°13'0 0.0
2016-Jun-23 03:32N 33°46' W 118°13'0 0.0
2016-Jun-23 02:32N 33°46' W 118°13'0 0.0
2016-Jun-23 01:32N 33°46' W 118°13'0 0.0
2016-Jun-23 00:32N 33°46' W 118°13'0 0.0
2016-Jun-22 23:32N 33°46' W 118°13'0 0.0
2016-Jun-22 22:32N 33°46' W 118°13'0 0.0
2016-Jun-22 21:32N 33°46' W 118°13'0 0.0
2016-Jun-22 20:32N 33°46' W 118°13'0 0.0
2016-Jun-22 19:32N 33°46' W 118°13'0 0.0
2016-Jun-22 18:32N 33°46' W 118°13'0 0.0
2016-Jun-22 17:32N 33°46' W 118°13'0 0.0
2016-Jun-22 16:32N 33°46' W 118°13'0 0.0
2016-Jun-22 15:29N 33°46' W 118°13'0 0.0
2016-Jun-22 14:32N 33°46' W 118°13'0 0.0
2016-Jun-22 13:32N 33°46' W 118°13'0 0.0
2016-Jun-22 12:32N 33°46' W 118°13'0 0.0
2016-Jun-22 11:32N 33°46' W 118°13'0 0.0
2016-Jun-22 10:32N 33°46' W 118°13'0 0.0
2016-Jun-22 09:32N 33°46' W 118°13'0 0.0
2016-Jun-22 08:32N 33°46' W 118°13'0 0.0
2016-Jun-22 07:29N 33°46' W 118°13'0 0.0
2016-Jun-22 06:32N 33°46' W 118°13'0 0.0
2016-Jun-22 05:32N 33°46' W 118°13'0 0.0
2016-Jun-22 04:32N 33°46' W 118°13'0 0.0
2016-Jun-22 03:32N 33°46' W 118°13'0 0.0
2016-Jun-22 02:32N 33°46' W 118°13'0 0.0
2016-Jun-22 01:32N 33°46' W 118°13'0 0.0
2016-Jun-22 00:32N 33°46' W 118°13'0 0.0
2016-Jun-21 23:32N 33°46' W 118°13'0 0.0
2016-Jun-21 22:32N 33°46' W 118°13'0 0.0
2016-Jun-21 21:32N 33°46' W 118°13'0 0.0
2016-Jun-21 20:32N 33°46' W 118°13'0 0.0
2016-Jun-21 19:32N 33°46' W 118°13'0 0.0
2016-Jun-21 18:32N 33°46' W 118°13'0 0.0
2016-Jun-21 17:32N 33°46' W 118°13'0 0.0
2016-Jun-21 16:32N 33°46' W 118°13'0 0.0
2016-Jun-21 15:32N 33°46' W 118°13'0 0.0
2016-Jun-21 14:32N 33°46' W 118°13'0 0.0
2016-Jun-21 13:32N 33°46' W 118°13'0 0.0
2016-Jun-21 12:32N 33°46' W 118°13'0 0.0
2016-Jun-21 11:32N 33°46' W 118°13'0 0.0
2016-Jun-21 10:32N 33°46' W 118°13'0 0.0
2016-Jun-21 09:32N 33°46' W 118°13'0 0.0
2016-Jun-21 08:32N 33°46' W 118°13'  
Track history (hours):
 
Tides and Currents Weather Stations Pressure Air Temp Water Temp Dewpoint Dewpoint Depression Visibility Wind Speed Wind Dir Waves Ship Positions

Sea Voyager

Last reported at 2016-Jul-01 08:11 UTC. Time now 2016-Jul-23 21:13 UTC.
Position N 28°09' W 119°46'.
Warning: this ship's position is 22 days out of date.

Length 243 m; draft 8.7 m.

Type: Ship. MMSI: 538003439.

Date/timePositionNaut miles runAvg speedWind from/ knotsBaromVisibWave heightAir tempDewpointWater temp
2016-Jul-01 08:11N 28°09' W 119°46'912.6
2016-Jul-01 07:30N 28°16' W 119°53'1212.5
2016-Jul-01 06:33N 28°25' W 120°01'2512.5
2016-Jul-01 04:33N 28°44' W 120°20'1312.5
2016-Jul-01 03:33N 28°53' W 120°29'1412.6
2016-Jul-01 02:29N 29°03' W 120°40'1112.3
2016-Jul-01 01:33N 29°12' W 120°48'1212.3
2016-Jul-01 00:33N 29°21' W 120°57'1212.4
2016-Jun-30 23:33N 29°31' W 121°07'1212.2
2016-Jun-30 22:33N 29°40' W 121°16'1512.5
2016-Jun-30 21:22N 29°51' W 121°27'1012.7
2016-Jun-30 20:33N 29°59' W 121°35'1212.4
2016-Jun-30 19:33N 30°08' W 121°44'1312.5
2016-Jun-30 18:31N 30°18' W 121°54'1212.6
2016-Jun-30 17:33N 30°27' W 122°03'1312.6
2016-Jun-30 16:33N 30°36' W 122°13'1312.8
2016-Jun-30 15:33N 30°46' W 122°23'1412.7
2016-Jun-30 14:29N 30°56' W 122°33'1212.5
2016-Jun-30 13:32N 31°05' W 122°42'3712.5
2016-Jun-30 10:33N 31°33' W 123°11'1412.5
2016-Jun-30 09:28N 31°44' W 123°21'5012.7
2016-Jun-30 05:29N 32°22' W 123°60'1212.4
2016-Jun-30 04:33N 32°32' W 124°07'8912.5
2016-Jun-29 21:27N 33°49' W 124°59'1112.1
2016-Jun-29 20:32N 33°59' W 125°05'1212.1
2016-Jun-29 19:31N 34°10' W 125°12'1212.0
2016-Jun-29 18:33N 34°20' W 125°19'2412.2
2016-Jun-29 16:33N 34°41' W 125°34'1312.2
2016-Jun-29 15:31N 34°53' W 125°41'3812.4
2016-Jun-29 12:27N 35°23' W 125°12'1112.5
2016-Jun-29 11:33N 35°32' W 125°04'1312.6
2016-Jun-29 10:33N 35°42' W 124°54'1312.9
2016-Jun-29 09:33N 35°52' W 124°45'1312.7
2016-Jun-29 08:33N 36°02' W 124°35'1312.5
2016-Jun-29 07:33N 36°11' W 124°25'1312.5
2016-Jun-29 06:32N 36°22' W 124°16'1212.5
2016-Jun-29 05:33N 36°31' W 124°06'1212.4
2016-Jun-29 04:33N 36°41' W 123°57'1212.4
2016-Jun-29 03:33N 36°51' W 123°47'1212.3
2016-Jun-29 02:33N 37°00' W 123°38'1212.4
2016-Jun-29 01:33N 37°10' W 123°28'1212.5
2016-Jun-29 00:33N 37°20' W 123°18'1212.5
2016-Jun-28 23:33N 37°30' W 123°09'1212.2
2016-Jun-28 22:33N 37°38' W 122°57'1212.3
2016-Jun-28 21:33N 37°44' W 122°44'1010.0
2016-Jun-28 20:33N 37°48' W 122°32'11 9.8
2016-Jun-28 19:24N 37°58' W 122°26'1112.7
2016-Jun-28 18:33N 38°04' W 122°15'6 0.2
2016-Jun-27 12:07N 38°02' W 122°07'1 1.0
2016-Jun-27 11:33N 38°02' W 122°08'5 5.0
2016-Jun-27 10:33N 38°04' W 122°14'11 9.7
2016-Jun-27 09:26N 37°58' W 122°26'9 9.8
2016-Jun-27 08:34N 37°50' W 122°24'8 8.5
2016-Jun-27 07:34N 37°47' W 122°34'9 9.0
2016-Jun-27 06:33N 37°42' W 122°44'7 7.3
2016-Jun-27 05:33N 37°37' W 122°51'8 7.6
2016-Jun-27 04:33N 37°34' W 122°59'7 7.3
2016-Jun-27 03:33N 37°27' W 123°03'6 6.1
2016-Jun-27 02:33N 37°21' W 123°02'1 1.0
2016-Jun-27 01:32N 37°20' W 123°02'1 1.2
2016-Jun-27 00:32N 37°20' W 123°03'1 1.1
2016-Jun-26 23:34N 37°21' W 123°04'1 1.3
2016-Jun-26 22:33N 37°21' W 123°06'1 1.4
2016-Jun-26 21:34N 37°22' W 123°07'2 1.5
2016-Jun-26 20:33N 37°23' W 123°09'9 8.6
2016-Jun-26 19:33N 37°15' W 123°13'1212.3
2016-Jun-26 18:33N 37°03' W 123°10'1312.5
2016-Jun-26 17:33N 36°52' W 123°03'1212.3
2016-Jun-26 16:33N 36°41' W 122°56'1312.5
2016-Jun-26 15:33N 36°30' W 122°48'1212.3
2016-Jun-26 14:34N 36°19' W 122°42'1212.0
2016-Jun-26 13:33N 36°08' W 122°35'1312.5
2016-Jun-26 12:34N 35°57' W 122°28'1212.5
2016-Jun-26 11:33N 35°46' W 122°21'1312.6
2016-Jun-26 10:33N 35°34' W 122°14'1312.6
2016-Jun-26 09:33N 35°23' W 122°07'1313.0
2016-Jun-26 08:33N 35°12' W 121°60'1212.5
2016-Jun-26 07:34N 35°00' W 121°53'1212.3
2016-Jun-26 06:34N 34°49' W 121°46'1212.4
2016-Jun-26 05:33N 34°38' W 121°39'5011.8
2016-Jun-26 01:18N 33°54' W 121°10'911.6
2016-Jun-26 00:33N 33°47' W 121°04'1211.7
2016-Jun-25 23:33N 33°38' W 120°56'3712.3
2016-Jun-25 20:33N 33°07' W 120°31'1212.4
2016-Jun-25 19:33N 32°57' W 120°23'1312.5
2016-Jun-25 18:33N 32°46' W 120°15'1212.5
2016-Jun-25 17:33N 32°36' W 120°07'1212.4
2016-Jun-25 16:33N 32°26' W 119°58'1312.5
2016-Jun-25 15:33N 32°15' W 119°50'1312.5
2016-Jun-25 14:33N 32°05' W 119°41'1212.4
2016-Jun-25 13:33N 31°55' W 119°33'1212.3
2016-Jun-25 12:33N 31°45' W 119°24'2 1.6
2016-Jun-25 11:33N 31°45' W 119°23'4 1.9
2016-Jun-25 09:20N 31°50' W 119°22'2 2.7
2016-Jun-25 08:33N 31°51' W 119°23'2 1.8
2016-Jun-25 07:33N 31°53' W 119°25'4 1.9
2016-Jun-25 05:30N 31°56' W 119°28'2 2.2
2016-Jun-25 04:26N 31°57' W 119°30'2 2.4
2016-Jun-25 03:33N 31°59' W 119°32'3 2.8
2016-Jun-25 02:31N 32°01' W 119°34'5 4.6
2016-Jun-25 01:33N 32°04' W 119°38'6 6.1
2016-Jun-25 00:33N 32°08' W 119°43'3 3.3
2016-Jun-24 23:33N 32°10' W 119°46'2 1.9
2016-Jun-24 22:34N 32°12' W 119°46'3 2.6
2016-Jun-24 21:33N 32°14' W 119°47'2 2.4
2016-Jun-24 20:33N 32°15' W 119°44'9 8.7
2016-Jun-24 19:33N 32°15' W 119°34'1212.3
2016-Jun-24 18:33N 32°15' W 119°20'1312.6
2016-Jun-24 17:33N 32°15' W 119°05'1212.5
2016-Jun-24 16:33N 32°15' W 118°50'1212.5
2016-Jun-24 15:34N 32°15' W 118°35'1111.0
2016-Jun-24 14:33N 32°19' W 118°23'1312.8
2016-Jun-24 13:33N 32°31' W 118°18'1312.9
2016-Jun-24 12:34N 32°43' W 118°13'1312.8
2016-Jun-24 11:33N 32°55' W 118°07'1312.1
2016-Jun-24 10:27N 33°08' W 118°02'1011.7
2016-Jun-24 09:33N 33°18' W 118°06'1212.1
2016-Jun-24 08:33N 33°29' W 118°11'1211.6
2016-Jun-24 07:34N 33°41' W 118°12'3 3.4
2016-Jun-24 06:33N 33°44' W 118°10'0 0.0
2016-Jun-24 04:33N 33°44' W 118°10'0 0.0
2016-Jun-24 03:33N 33°44' W 118°10'0 0.0
2016-Jun-24 02:33N 33°44' W 118°10'0 0.0
2016-Jun-24 01:33N 33°44' W 118°10'0 0.0
2016-Jun-24 00:33N 33°44' W 118°10'0 0.0
2016-Jun-23 23:33N 33°44' W 118°10'0 0.0
2016-Jun-23 22:30N 33°44' W 118°10'0 0.1
2016-Jun-23 21:33N 33°44' W 118°10'0 0.1
2016-Jun-23 20:27N 33°44' W 118°11'1 0.7
2016-Jun-23 19:33N 33°44' W 118°11'3 3.0
2016-Jun-23 18:32N 33°46' W 118°13'0 0.0
2016-Jun-23 17:32N 33°46' W 118°13'0 0.0
2016-Jun-23 16:32N 33°46' W 118°13'0 0.0
2016-Jun-23 15:32N 33°46' W 118°13'0 0.0
2016-Jun-23 14:32N 33°46' W 118°13'0 0.0
2016-Jun-23 13:32N 33°46' W 118°13'0 0.0
2016-Jun-23 12:32N 33°46' W 118°13'0 0.0
2016-Jun-23 11:32N 33°46' W 118°13'0 0.0
2016-Jun-23 10:32N 33°46' W 118°13'0 0.0
2016-Jun-23 09:32N 33°46' W 118°13'0 0.0
2016-Jun-23 08:32N 33°46' W 118°13'0 0.0
2016-Jun-23 07:32N 33°46' W 118°13'0 0.0
2016-Jun-23 05:32N 33°46' W 118°13'0 0.0
2016-Jun-23 04:32N 33°46' W 118°13'0 0.0
2016-Jun-23 03:32N 33°46' W 118°13'0 0.0
2016-Jun-23 02:32N 33°46' W 118°13'0 0.0
2016-Jun-23 01:32N 33°46' W 118°13'0 0.0
2016-Jun-23 00:32N 33°46' W 118°13'0 0.0
2016-Jun-22 23:32N 33°46' W 118°13'0 0.0
2016-Jun-22 22:32N 33°46' W 118°13'0 0.0
2016-Jun-22 21:32N 33°46' W 118°13'0 0.0
2016-Jun-22 20:32N 33°46' W 118°13'0 0.0
2016-Jun-22 19:32N 33°46' W 118°13'0 0.0
2016-Jun-22 18:32N 33°46' W 118°13'0 0.0
2016-Jun-22 17:32N 33°46' W 118°13'0 0.0
2016-Jun-22 16:32N 33°46' W 118°13'0 0.0
2016-Jun-22 15:29N 33°46' W 118°13'0 0.0
2016-Jun-22 14:32N 33°46' W 118°13'0 0.0
2016-Jun-22 13:32N 33°46' W 118°13'0 0.0
2016-Jun-22 12:32N 33°46' W 118°13'0 0.0
2016-Jun-22 11:32N 33°46' W 118°13'0 0.0
2016-Jun-22 10:32N 33°46' W 118°13'0 0.0
2016-Jun-22 09:32N 33°46' W 118°13'0 0.0
2016-Jun-22 08:32N 33°46' W 118°13'0 0.0
2016-Jun-22 07:29N 33°46' W 118°13'0 0.0
2016-Jun-22 06:32N 33°46' W 118°13'0 0.0
2016-Jun-22 05:32N 33°46' W 118°13'0 0.0
2016-Jun-22 04:32N 33°46' W 118°13'0 0.0
2016-Jun-22 03:32N 33°46' W 118°13'0 0.0
2016-Jun-22 02:32N 33°46' W 118°13'0 0.0
2016-Jun-22 01:32N 33°46' W 118°13'0 0.0
2016-Jun-22 00:32N 33°46' W 118°13'0 0.0
2016-Jun-21 23:32N 33°46' W 118°13'0 0.0
2016-Jun-21 22:32N 33°46' W 118°13'0 0.0
2016-Jun-21 21:32N 33°46' W 118°13'0 0.0
2016-Jun-21 20:32N 33°46' W 118°13'0 0.0
2016-Jun-21 19:32N 33°46' W 118°13'0 0.0
2016-Jun-21 18:32N 33°46' W 118°13'0 0.0
2016-Jun-21 17:32N 33°46' W 118°13'0 0.0
2016-Jun-21 16:32N 33°46' W 118°13'0 0.0
2016-Jun-21 15:32N 33°46' W 118°13'0 0.0
2016-Jun-21 14:32N 33°46' W 118°13'0 0.0
2016-Jun-21 13:32N 33°46' W 118°13'0 0.0
2016-Jun-21 12:32N 33°46' W 118°13'0 0.0
2016-Jun-21 11:32N 33°46' W 118°13'0 0.0
2016-Jun-21 10:32N 33°46' W 118°13'0 0.0
2016-Jun-21 09:32N 33°46' W 118°13'0 0.0
2016-Jun-21 08:32N 33°46' W 118°13'  

Dump ship's entire track history